Погода в Казаклии

Молдова     46°00′30″N   28°39′44″E
темп.,
°C
ветер,
м/с
пор.,
м/с
влажн.,
%
обл.,
%
осадки,
мм/ч
давл.,
гПа
погр.,
м
11 мая, вт
вт1100:00+10ююз35560 0.0 102276
03:00+9з22540 0.0 102114
06:00+8с22540 0.0 102115
09:00+14ссз34460 0.0 1021400
12:00+19с34395 0.0 10191510
15:00+21ссз33343 0.0 10171596
18:00+21ссв34372 0.0 10161705
21:00+16с33575 0.0 101520
12 мая, ср
ср1200:00+15ссв337386 0.0 101549
03:00+13св228532 0.1 101327
06:00+12всв349568 0.2 101395
09:00+14в5584100 0.9 1012655
12:00+12в5684100 0.2 1013654
15:00+12в5682100 0.3 1013609
18:00+13вюв4579100 0.0 1012544
21:00+12вюв4783100 0.0 1011377
13 мая, чт
чт1300:00+10вюв488655 0.1 1011305
03:00+10вюв378477 0.1 1010289
06:00+11юв4985100 0.0 1010370
09:00+13юв6886100 0.6 1009520
12:00+14юв4788100 2.4 1009546
15:00+16ю6867100 3.0 1008938
18:00+17ююв684947 0.0 10071175
21:00+14юв596783 0.0 1007288
14 мая, пт
пт1400:00+10юв4884100 0.0 1007159
03:00+10ююв349097 0.0 100771
06:00+11ю2296100 1.0 100747
09:00+14юз238576 1.0 1008478
12:00+19зюз445921 0.1 10081303
15:00+22ююз5649100 0.4 10081986
18:00+19юз476299 0.1 1008243
21:00+17ююз356639 0.1 100992
15 мая, сб
сб1500:00+14юз497443 0.0 1010168
03:00+13юз22785 0.0 101018
06:00+12юз127910 0.0 101112
09:00+18юз34600 0.0 1011417
12:00+21ююз564895 0.0 10111432
15:00+23юз5639100 0.0 10101991
18:00+23ююз57370 0.0 10091684
21:00+17ююв4966100 0.0 1009174